Flag for Mexico Weather past 2 weeks in Mexicali, Baja California, Mexico

Now
54 °F

Partly sunny.


Feels Like: 54 °F
Forecast: 52 / 70 °F
Wind: 3 mph from West

Location: Imperial County Airport

Current Time: Jan 31, 2015 at 8:31:20 AM

Latest Report: Jan 31, 2015 at 7:53 AM


Visibility: 10 mi

Pressure: 29.84 "Hg

Humidity: 83%

Dew point: 49 °F

Location of MexicaliLocation

Historic Weather in Mexicali — Graph

°F

Mexicali temperature yesterday

Maximum temperature yesterday: 68 °F (at 2:53 PM)
Minimum temperature yesterday: 54 °F (at 11:53 PM)
Average temperature yesterday: 61 °F

Past Weeks' High & Low Weather Summary

 TemperatureHumidityPressure
High79 °F (Jan 19, 2:53 PM)100% (Jan 27, 3:53 AM)30.33 "Hg (Jan 27, 3:53 AM)
Low37 °F (Jan 24, 5:53 AM)8% (Jan 22, 11:53 AM)29.79 "Hg (Jan 31, 3:53 AM)
Average59 °F49%30.08 "Hg
* Reported Jan 16 6:53 AM — Jan 31 6:53 AM, Mexicali, Weather by CustomWeather, © 2014

Note: Actual official high and low records may vary slightly from our data, if they occured in-between our weather recording intervals... More about our weather records

Advertising

Mexicali weather history for previous 24 hours

 ConditionsComfort  
Time TempWeatherWind HumidityBarometerVisibility
6:53 AM
Jan 31
51 °FOvercast.3 mph86%29.82 "Hg10 mi
5:53 AM50 °FMostly cloudy.No wind86%29.81 "Hg10 mi
4:53 AM50 °FPartly cloudy.6 mph89%29.80 "Hg10 mi
3:53 AM50 °FClear.No wind93%29.79 "Hg10 mi
2:53 AM50 °FPassing clouds.No wind86%29.80 "Hg10 mi
1:53 AM52 °FClear.No wind89%29.80 "Hg10 mi
12:53 AM53 °FClear.3 mph83%29.81 "Hg10 mi
11:53 PM
Jan 30
54 °FClear.No wind80%29.82 "Hg10 mi
10:53 PM55 °FClear.5 mph77%29.83 "Hg10 mi
9:53 PM56 °FPassing clouds.6 mph75%29.84 "Hg10 mi
8:53 PM59 °FOvercast.6 mph67%29.83 "Hg10 mi
7:53 PM62 °FPassing clouds.5 mph60%29.83 "Hg10 mi
6:53 PM62 °FPassing clouds.6 mph60%29.83 "Hg10 mi
5:53 PM62 °FClear.6 mph62%29.82 "Hg10 mi
4:53 PM65 °FOvercast.8 mph56%29.81 "Hg10 mi
3:53 PM68 °FOvercast.9 mph53%29.81 "Hg10 mi
2:53 PM68 °FOvercast.8 mph51%29.81 "Hg10 mi
1:53 PM67 °FMostly cloudy.8 mph55%29.82 "Hg10 mi
12:53 PM67 °FOvercast.10 mph57%29.85 "Hg10 mi
11:53 AM66 °FOvercast.8 mph61%29.88 "Hg10 mi
10:53 AM65 °FOvercast.7 mph63%29.91 "Hg10 mi
9:53 AM61 °FOvercast.5 mph78%29.93 "Hg10 mi
8:53 AM60 °FOvercast.6 mph80%29.92 "Hg10 mi
Weather by CustomWeather, © 2014

See weather overviewHow to use our weather pages